This is the latest recevied weather packets stored in our database for station/object KC8SWY-15. If no packets are shown the sender has not sent any weather packets the latest 10 day(s).
| Time | Temp. | Humidity | Pressure | Rain* | Wind** | Luminosity | Snow |
|---|---|---|---|---|---|---|---|
| 1787885161 | 15° C | 91% | 1016.9 hPa | 0 mm | - | - | - |
| 1787884861 | 15° C | 91% | 1016.8 hPa | 0 mm | - | - | - |
| 1787884561 | 15° C | 91% | 1016.8 hPa | 0 mm | - | - | - |
| 1787884261 | 15° C | 90% | 1016.9 hPa | 0 mm | - | - | - |
| 1787883961 | 15.56° C | 90% | 1016.9 hPa | 0 mm | - | - | - |
| 1787883661 | 15.56° C | 90% | 1016.7 hPa | 0 mm | - | - | - |
| 1787883361 | 15.56° C | 89% | 1016.7 hPa | 0 mm | - | - | - |
| 1787883061 | 15.56° C | 89% | 1016.8 hPa | 0 mm | - | - | - |
| 1787882761 | 16.11° C | 89% | 1016.7 hPa | 0 mm | - | - | - |
| 1787882461 | 16.11° C | 88% | 1016.7 hPa | 0 mm | - | - | - |
| 1787882161 | 16.11° C | 87% | 1016.7 hPa | 0 mm | - | - | - |
| 1787881861 | 16.67° C | 88% | 1016.6 hPa | 0 mm | - | - | - |
| 1787881561 | 16.67° C | 87% | 1016.5 hPa | 0 mm | - | - | - |
| 1787881261 | 16.67° C | 87% | 1016.5 hPa | 0 mm | - | - | - |
| 1787880961 | 16.67° C | 86% | 1016.5 hPa | 0 mm | - | - | - |
| 1787880661 | 17.22° C | 86% | 1016.5 hPa | 0 mm | - | - | - |
| 1787880361 | 17.22° C | 85% | 1016.4 hPa | 0 mm | - | - | - |
| 1787880061 | 17.22° C | 83% | 1016.4 hPa | 0 mm | - | - | - |
| 1787879863 | 17.78° C | 82% | 1016.4 hPa | 0 mm | - | - | - |
| 1787879761 | 17.78° C | 82% | 1016.4 hPa | 0 mm | - | - | - |
| 1787879461 | 18.33° C | 81% | 1016.3 hPa | 0 mm | - | - | - |
| 1787878862 | 19.44° C | 79% | 1016.1 hPa | 0 mm | - | - | - |
| 1787878562 | 19.44° C | 78% | 1016 hPa | 0 mm | - | - | - |
| 1787878262 | 19.44° C | 77% | 1016 hPa | 0 mm | - | - | - |
| 1787878035 | 20° C | 76% | 1015.9 hPa | 0 mm | - | - | - |
* Rain latest hour (hover to see other rain measurements)
** Current wind speed in m/s (hover to see current wind gust speed)